Flag for Germany Weather past 2 weeks in Kiel, Schleswig-Holstein, Germany

Now
61 °F

Scattered showers. Partly sunny.


Feels Like: 61 °F
Forecast: 55 / 60 °F
Wind: 17 mph from West

Location: Kiel / Holtenau Civilian

Current Time: Jul 28, 2015 at 1:05:09 PM

Latest Report: Jul 28, 2015 at 12:20 PM


Visibility: N/A

Pressure: 29.45 "Hg

Humidity: 72%

Dew point: 52 °F

Location of KielLocation

Historic Weather in Kiel — Graph

°F

Kiel temperature yesterday

Maximum temperature yesterday: 63 °F (at 4:50 PM)
Minimum temperature yesterday: 55 °F (at 8:20 AM)
Average temperature yesterday: 59 °F

Past Weeks' High & Low Weather Summary

 TemperatureHumidityPressure
High79 °F (Jul 17, 6:20 PM)100% (Jul 18, 8:20 AM)30.12 "Hg (Jul 18, 8:20 AM)
Low54 °F (Jul 15, 6:50 AM)40% (Jul 15, 4:20 PM)29.39 "Hg (Jul 25, 2:50 PM)
Average64 °F69%29.84 "Hg
* Reported Jul 13 11:20 AM — Jul 28 11:20 AM, Kiel, Weather by CustomWeather, © 2015

Note: Actual official high and low records may vary slightly from our data, if they occured in-between our weather recording intervals... More about our weather records

Advertising

Kiel weather history for previous 24 hours

 ConditionsComfort  
Time TempWeatherWind HumidityBarometerVisibility
11:20 AM
Tue, Jul 28
59 °FRain showers. Cloudy.12 mph100%29.45 "HgN/A
10:50 AM59 °FSprinkles. Partly sunny.13 mph100%29.45 "HgN/A
10:20 AM59 °FSprinkles. Low clouds.13 mph94%29.45 "HgN/A
9:50 AM59 °FSprinkles. Partly sunny.14 mph100%29.42 "Hg6 mi
9:20 AM57 °FSprinkles. Mostly cloudy.13 mph100%29.42 "Hg4 mi
8:50 AM57 °FSprinkles. Mostly cloudy.14 mph100%29.42 "HgN/A
8:20 AM57 °FSprinkles. Fog.13 mph100%29.42 "Hg2 mi
5:50 PM
Mon, Jul 27
61 °FDrizzle. Mostly cloudy.5 mph100%29.45 "HgN/A
5:20 PM61 °FSprinkles. Mostly cloudy.6 mph100%29.45 "Hg3 mi
4:50 PM63 °FScattered showers. Broken clouds.8 mph88%29.45 "HgN/A
4:20 PM61 °FBroken clouds.8 mph94%29.45 "HgN/A
3:50 PM61 °FMore clouds than sun.5 mph100%29.45 "HgN/A
3:20 PM59 °FDrizzle. Cloudy.7 mph100%29.45 "HgN/A
2:50 PM59 °FDrizzle. Mostly cloudy.8 mph100%29.45 "Hg4 mi
2:20 PM59 °FMostly cloudy.8 mph94%29.47 "HgN/A
1:50 PM59 °FMostly cloudy.8 mph94%29.47 "HgN/A
1:20 PM57 °FDrizzle. Mostly cloudy.8 mph100%29.47 "Hg4 mi
Weather by CustomWeather, © 2015

See weather overviewHow to use our weather pages